User: anonymous   Login
Location: Dover
(39.1580°N, 75.5250°W)
Time: 15:14:31
(UTC-04:00)
Language:

SeaSat 1 - Orbit

View from above orbital plane
View from above orbital plane
View from above satellite
View from above satellite

Ground track
Ground track

The orbit data is extracted from the following two-line orbital elements,

1 10967U 78064A   15182.17213973 -.00000007  00000-0  38279-4 0  9999
2 10967 107.9941 241.8929 0001254 288.1447 071.9560 14.43406843943132
Epoch (UTC): 01 July 2015 04:07:52
Eccentricity: 0.0001254
inclination: 107.9941°
perigee height: 746 km
apogee height: 748 km
right ascension of ascending node: 241.8929°
argument of perigee: 288.1447°
revolutions per day: 14.43406843
mean anomaly at epoch: 71.9560°
orbit number at epoch: 94313

The dashed part of the orbit path shows where the satellite is in the earth's shadow,  

DLR